Weather History for Longview, TX

Change the Weather History Date:

Friday, July 19, 2013

  Actual Average Record
Temperature  
Mean Temperature 79 °F 84 °F  
Max Temperature 87 °F 94 °F 106 °F (1934)
Min Temperature 71 °F 74 °F 65 °F (1926)
Degree Days  
Heating Degree Days 0 0  
Month to date heating degree days 0 0  
Since 1 June heating degree days 0 0  
Since 1 July heating degree days 0 0  
Cooling Degree Days 14 19  
Month to date cooling degree days 321 348  
Year to date cooling degree days 1225 1166  
Since 1 June cooling degree days 837 787  
Growing Degree Days 29 (Base 50)    
Moisture  
Dew Point 70 °F    
Average Humidity 74    
Maximum Humidity 90    
Minimum Humidity 57    
Precipitation  
Precipitation T in 0.08 in 1.02 in (1922)
Month to date precipitation 1.11 2.05  
Year to date precipitation 19.26 26.79  
Snow  
Snow 0.00 in - - ()
Month to date snowfall 0.0  
Since 1 June snowfall 0.0  
Since 1 July snowfall 0.0  
Snow Depth 0.00 in    
Sea Level Pressure  
Sea Level Pressure 30.01 in    
Wind  
Wind Speed 4 mph (SSW)    
Max Wind Speed 15 mph    
Max Gust Speed 21 mph    
Visibility 10 miles    
Events Rain , Thunderstorm    
T = Trace of Precipitation, MM = Missing Value Source: NWS Daily Summary

Daily Weather History Graph

Daily Weather History Graph

Search for Another Location

Airport:

Trip Planner

Search our weather history database for the weather conditions in past years. The results will help you decide how hot, cold, wet, or windy it might be!

Date:

Astronomy

Jul. 19, 2013 Rise Set
Actual Time 6:25 AM CDT 8:24 PM CDT
Civil Twilight 5:57 AM CDT 8:52 PM CDT
Nautical Twilight 5:24 AM CDT 9:25 PM CDT
Astronomical Twilight 4:48 AM CDT 10:01 PM CDT
Moon 5:28 PM CDT (7/19) 3:06 AM CDT (7/19)
Length of Visible Light 14h 54m
Length of Day
13h 59m
Waxing Gibbous, 87% of the Moon is Illuminated
Jul 19
Waxing Gibbous
Jul 22
Full
Jul 29
Last Quarter
Aug 6
New
Aug 14
First Quarter

Hourly Weather History & Observations

Time (CDT) Temp. Heat Index Dew Point Humidity Pressure Visibility Wind Dir Wind Speed Gust Speed Precip Events Conditions
12:53 AM 72.0 °F - 68.0 °F 87% 30.02 in 10.0 mi SSE 4.6 mph - N/A   Clear
1:53 AM 72.0 °F - 68.0 °F 87% 30.02 in 10.0 mi Calm Calm - N/A   Clear
2:53 AM 72.0 °F - 68.0 °F 87% 30.02 in 10.0 mi Calm Calm - N/A   Clear
3:53 AM 73.0 °F - 68.0 °F 84% 30.01 in 10.0 mi WSW 3.5 mph - 0.00 in Rain Light Rain
4:53 AM 73.0 °F - 69.1 °F 87% 30.01 in 10.0 mi Calm Calm - 0.00 in   Clear
5:53 AM 73.0 °F - 69.1 °F 87% 30.02 in 10.0 mi SE 3.5 mph - N/A   Mostly Cloudy
6:53 AM 73.0 °F - 70.0 °F 90% 30.03 in 10.0 mi East 3.5 mph - N/A   Overcast
7:05 AM 73.4 °F - 69.8 °F 88% 30.05 in 10.0 mi East 4.6 mph - N/A Thunderstorm Thunderstorm
7:53 AM 73.0 °F - 70.0 °F 90% 30.06 in 10.0 mi East 6.9 mph - N/A Thunderstorm Thunderstorm
8:53 AM 73.9 °F - 70.0 °F 87% 30.07 in 10.0 mi South 11.5 mph - N/A Thunderstorm Thunderstorm
9:53 AM 75.9 °F - 70.0 °F 82% 30.07 in 10.0 mi WSW 4.6 mph - N/A   Mostly Cloudy
10:53 AM 79.0 °F - 71.1 °F 77% 30.07 in 10.0 mi SW 10.4 mph - N/A   Mostly Cloudy
11:53 AM 80.1 °F 83.6 °F 71.1 °F 74% 30.06 in 10.0 mi SSW 10.4 mph - N/A   Mostly Cloudy
12:53 PM 81.0 °F 84.1 °F 69.1 °F 67% 30.05 in 10.0 mi SSW 9.2 mph - N/A   Mostly Cloudy
1:53 PM 82.0 °F 85.5 °F 69.1 °F 65% 30.04 in 10.0 mi SSW 8.1 mph - 0.00 in   Mostly Cloudy
2:53 PM 82.0 °F 85.9 °F 70.0 °F 67% 30.02 in 10.0 mi WSW 4.6 mph - N/A   Mostly Cloudy
3:53 PM 82.9 °F 85.8 °F 68.0 °F 60% 29.99 in 10.0 mi Variable 5.8 mph - 0.00 in   Overcast
4:53 PM 84.0 °F 88.4 °F 70.0 °F 63% 29.96 in 10.0 mi SW 3.5 mph - N/A   Mostly Cloudy
5:53 PM 86.0 °F 90.7 °F 70.0 °F 59% 29.93 in 10.0 mi SW 5.8 mph - N/A   Scattered Clouds
6:53 PM 84.9 °F 88.8 °F 69.1 °F 59% 29.94 in 10.0 mi WSW 3.5 mph - N/A   Clear
7:53 PM 81.0 °F 84.9 °F 71.1 °F 72% 29.96 in 10.0 mi NW 3.5 mph - N/A   Scattered Clouds
8:53 PM 79.0 °F - 71.1 °F 77% 29.96 in 10.0 mi Calm Calm - N/A   Clear
9:53 PM 75.9 °F - 71.1 °F 85% 29.96 in 10.0 mi Calm Calm - N/A   Clear
10:53 PM 75.0 °F - 71.1 °F 87% 29.95 in 10.0 mi Calm Calm - N/A   Clear
11:53 PM 75.0 °F - 71.1 °F 87% 29.96 in 10.0 mi Calm Calm - N/A   Clear